Home   Weather   Kuopio   Past weeks
Flag for Finland

Past Weather in Kuopio, Finland — Yesterday and Last 2 Weeks

Now
39 °F

Clear.


Feels Like: 34 °F
Forecast: 47 / 36 °F
Wind: 8 mph from Northwest

Location: Kuopio Airport

Current Time: Sep 19, 2019 at 8:18:02 pm

Latest Report: Sep 19, 2019 at 7:50 pm


Visibility: 10 mi

Pressure: 29.92 "Hg

Humidity: 93%

Dew Point: 37 °F

Location of KuopioLocation

Past Weather in Kuopio — Graph

°F

Kuopio Temperature Yesterday

Maximum temperature yesterday: 48 °F (at 2:50 pm)
Minimum temperature yesterday: 39 °F (at 2:20 am)
Average temperature yesterday: 43 °F

High & Low Weather Summary for the Past Weeks

 TemperatureHumidityPressure
High70 °F (Sep 11, 2:20 pm)100% (Sep 5, 4:50 am)30.36 "Hg (Sep 5, 4:50 am)
Low34 °F (Sep 19, 2:50 am)46% (Sep 18, 3:20 pm)29.00 "Hg (Sep 15, 10:50 pm)
Average52 °F83%29.81 "Hg
* Reported Sep 4 6:20 pm — Sep 19 6:50 pm, Kuopio. Weather by CustomWeather, © 2019

Note: Actual official high and low records may vary slightly from our data, if they occured in-between our weather recording intervals... More about our weather records

Advertising

Kuopio Weather History for the Previous 24 Hours

Scroll right to see more
 ConditionsComfort  
Time TempWeatherWind HumidityBarometerVisibility
6:50 pm
Thu, Sep 19
39 °FBroken clouds.12 mph93%29.92 "HgN/A
6:20 pm41 °FBroken clouds.10 mph87%29.89 "HgN/A
5:50 pm39 °FSprinkles. Partly sunny.7 mph93%29.89 "HgN/A
5:20 pm39 °FSprinkles. Low clouds.9 mph93%29.89 "HgN/A
4:50 pm39 °FLight rain. Low clouds.10 mph93%29.89 "HgN/A
4:20 pm39 °FSprinkles. Low clouds.13 mph93%29.86 "HgN/A
3:50 pm43 °FSprinkles. More clouds than sun.6 mph87%29.86 "HgN/A
3:20 pm43 °FBroken clouds.3 mph87%29.86 "HgN/A
2:50 pm41 °FLight rain. Partly sunny.3 mph87%29.86 "HgN/A
2:20 pm41 °FLight rain. Broken clouds.5 mph93%29.86 "HgN/A
1:50 pm41 °FSprinkles. Broken clouds.3 mph93%29.86 "HgN/A
1:20 pm41 °FLight rain. Broken clouds.2 mph87%29.86 "HgN/A
12:50 pm41 °FLight rain. Broken clouds.3 mph87%29.86 "HgN/A
12:20 pm41 °FLight rain. Broken clouds.3 mph87%29.86 "HgN/A
11:50 am41 °FLight rain. Partly sunny.5 mph87%29.86 "HgN/A
11:20 am43 °FBroken clouds.3 mph76%29.86 "HgN/A
10:50 am43 °FBroken clouds.2 mph76%29.86 "HgN/A
10:20 am41 °FPartly sunny.3 mph87%29.83 "HgN/A
9:50 am41 °FBroken clouds.1 mph87%29.83 "HgN/A
9:20 am41 °FBroken clouds.2 mph87%29.83 "HgN/A
8:50 am39 °FBroken clouds.2 mph87%29.83 "HgN/A
8:20 am37 °FBroken clouds.2 mph87%29.83 "HgN/A
7:50 am37 °FSunny.1 mph87%29.83 "Hg10 mi
7:20 am37 °FSunny.2 mph81%29.83 "Hg10 mi
6:50 am36 °FSunny.1 mph93%29.83 "Hg10 mi
6:20 am36 °FClear.2 mph93%29.83 "Hg10 mi
5:50 am36 °FClear.3 mph93%29.83 "Hg10 mi
5:20 am36 °FClear.2 mph87%29.83 "Hg10 mi
4:20 am34 °FClear.2 mph100%29.83 "Hg10 mi
3:50 am34 °FClear.3 mph93%29.83 "Hg10 mi
3:20 am34 °FClear.5 mph93%29.83 "Hg10 mi
2:50 am34 °FClear.3 mph100%29.83 "Hg10 mi
2:20 am36 °FClear.3 mph87%29.83 "Hg10 mi
1:50 am37 °FClear.2 mph81%29.83 "Hg10 mi
1:20 am37 °FClear.6 mph81%29.83 "Hg10 mi
12:50 am37 °FClear.7 mph87%29.83 "Hg10 mi
12:20 am37 °FClear.7 mph87%29.83 "Hg10 mi
11:50 pm
Wed, Sep 18
39 °FClear.5 mph81%29.83 "Hg10 mi
11:20 pm39 °FClear.5 mph81%29.83 "Hg10 mi
10:50 pm39 °FClear.7 mph75%29.80 "Hg10 mi
10:20 pm39 °FClear.7 mph75%29.80 "Hg10 mi
9:50 pm39 °FClear.6 mph75%29.80 "Hg10 mi
9:20 pm39 °FClear.7 mph75%29.80 "Hg10 mi
8:50 pm41 °FClear.7 mph70%29.80 "Hg10 mi
8:20 pm43 °FClear.8 mph61%29.77 "Hg10 mi
Weather by CustomWeather, © 2019

See weather overview